Location: A�t Lahcen
(32.8243°N, 5.4246°W)
Time: 01:53:11
(UTC+00:00)

COSMO-SKYMED 1 - Pass Details

Date: 27 January 2021
Orbit: 621 x 623 km, 97.9° (Epoch: 27 February)

Event Time Altitude Azimuth Distance (km) Brightness Sun altitude
Rises 05:02:13 0° 143° (SE) 2,890 6.5 -28.9°
Reaches altitude 10° 05:04:35 10° 133° (SE) 1,987 5.8 -28.4°
Maximum altitude 05:08:22 30° 72° (ENE) 1,120 4.4 -27.6°
Drops below altitude 10° 05:12:09 10° 11° (NNE) 1,998 5.2 -26.8°
Enters shadow 05:12:26 - 10° (N) 2,098 5.3 -26.8°
